EW1343 Weather Reports


Display with metric or nautical units.
time (UTC)temp
F
wind
direction
speed
MPH
gust
MPH
rain 1hr
in
rain 24hr
in
rain mn
in
humidity
%
barometer
mb
20260507234515 0 360 0.0 3.0 0.00 0.00 0.00 1019.0
20260507233013 0 360 0.0 2.0 0.00 0.00 0.00 1019.0
20260507231502 0 360 0.0 3.0 0.00 0.00 0.00 1019.0
20260507230058 0 53 0.0 1.0 0.00 0.00 0.00 1018.9
20260507224600 0 55 0.0 1.0 0.00 0.00 0.00 1018.9
20260507223050 0 5 0.0 0.0 0.00 0.00 0.00 1018.9
20260507221545 0 274 0.0 0.0 0.00 0.00 0.00 1018.9
20260507220044 0 274 0.0 0.0 0.00 0.00 0.00 1018.9
20260507214538 0 274 0.0 0.0 0.00 0.00 0.00 1018.9
20260507213034 0 272 0.0 0.0 0.00 0.00 0.00 1018.8
20260507211529 0 272 0.0 0.0 0.00 0.00 0.00 1018.8
20260507210023 0 272 0.0 0.0 0.00 0.00 0.00 1018.8
20260507204519 0 272 0.0 0.0 0.00 0.00 0.00 1018.8
20260507203015 0 272 0.0 0.0 0.00 0.00 0.00 1018.8
20260507201510 0 272 0.0 0.0 0.00 0.00 0.00 1018.8
20260507200006 0 272 0.0 0.0 0.00 0.00 0.00 1018.6
20260507194501 0 272 0.0 0.0 0.00 0.00 0.00 1018.5
20260507193058 0 268 0.0 2.0 0.00 0.00 0.00 1018.4
20260507191557 0 263 0.0 3.0 0.00 0.00 0.00 1018.2
20260507190053 0 229 1.0 5.0 0.00 0.00 0.00 1018.2
20260507184548 0 246 1.0 7.0 0.00 0.00 0.00 1017.9
20260507183042 0 242 2.0 6.0 0.00 0.00 0.00 1017.9
20260507181535 0 229 2.0 6.0 0.00 0.00 0.00 1017.9
20260507180030 0 246 1.0 6.0 0.00 0.00 0.00 1017.8
20260507174537 0 236 1.0 8.0 0.00 0.00 0.00 1017.8
20260507173027 0 248 4.0 9.0 0.00 0.00 0.00 1017.6
20260507171518 0 260 3.0 9.0 0.00 0.00 0.00 1017.7
20260507170015 0 235 3.0 8.0 0.00 0.00 0.00 1017.7
20260507164509 0 243 3.0 9.0 0.00 0.00 0.00 1017.6
20260507163004 0 266 3.0 7.0 0.00 0.00 0.00 1017.5
20260507161600 0 234 5.0 12.0 0.00 0.00 0.00 1017.6
20260507160056 0 229 3.0 8.0 0.00 0.00 0.00 1017.7
20260507154552 0 259 1.0 10.0 0.00 0.00 0.00 1017.7
20260507153051 0 248 1.0 8.0 0.00 0.00 0.00 1017.8
20260507151543 0 254 1.0 11.0 0.00 0.00 0.00 1017.7
20260507150041 0 256 1.0 10.0 0.00 0.00 0.00 1017.8
20260507144534 0 248 2.0 11.0 0.00 0.00 0.00 1017.7
20260507143033 0 273 1.0 9.0 0.00 0.00 0.00 1017.8
20260507141524 0 251 2.0 10.0 0.00 0.00 0.00 1017.9
20260507140020 0 211 4.0 9.0 0.00 0.00 0.00 1017.8
20260507134516 0 257 2.0 7.0 0.00 0.00 0.00 1017.9
20260507133011 0 216 4.0 11.0 0.00 0.00 0.00 1017.9
20260507131510 0 240 5.0 10.0 0.00 0.00 0.00 1017.8
20260507130002 0 228 0.0 10.0 0.00 0.00 0.00 1017.7
20260507124558 0 255 1.0 9.0 0.00 0.00 0.00 1017.7
20260507123054 0 225 5.0 10.0 0.00 0.00 0.00 1017.7
20260507121559 0 267 2.0 12.0 0.00 0.00 0.00 1017.7
20260507120046 0 227 3.0 10.0 0.00 0.00 0.00 1017.6
20260507114548 0 278 1.0 12.0 0.00 0.00 0.00 1017.6
20260507113037 0 253 0.0 5.0 0.00 0.00 0.00 1017.7
20260507111531 0 246 1.0 8.0 0.00 0.00 0.00 1017.6
20260507110027 0 239 2.0 7.0 0.00 0.00 0.00 1017.7
20260507104523 0 360 0.0 5.0 0.00 0.00 0.00 1017.7
20260507103018 0 250 1.0 8.0 0.00 0.00 0.00 1017.7
20260507101514 0 263 0.0 5.0 0.00 0.00 0.00 1017.6
20260507100010 0 360 1.0 7.0 0.00 0.00 0.00 1017.6
20260507094504 0 264 0.0 5.0 0.00 0.00 0.00 1017.6
20260507093001 0 327 0.0 3.0 0.00 0.00 0.00 1017.6
20260507091559 0 360 1.0 4.0 0.00 0.00 0.00 1017.6
20260507090056 0 231 1.0 6.0 0.00 0.00 0.00 1017.5
20260507084547 0 250 0.0 6.0 0.00 0.00 0.00 1017.6
20260507083044 0 292 0.0 5.0 0.00 0.00 0.00 1017.4
20260507081547 0 249 0.0 5.0 0.00 0.00 0.00 1017.5
20260507080036 0 238 2.0 7.0 0.00 0.00 0.00 1017.3
20260507074549 0 173 0.0 4.0 0.00 0.00 0.00 1017.3
20260507073027 0 49 0.0 6.0 0.00 0.00 0.00 1017.3
20260507071521 0 150 0.0 6.0 0.00 0.00 0.00 1017.4
20260507070021 0 172 0.0 4.0 0.00 0.00 0.00 1017.3
20260507064512 0 360 1.0 4.0 0.00 0.00 0.00 1017.3
20260507063016 0 360 0.0 0.0 0.00 0.00 0.00 1017.3
20260507061504 0 360 0.0 0.0 0.00 0.00 0.00 1017.1
20260507054637 0 186 0.0 0.0 0.00 0.00 0.00 1017.2
20260507053053 0 186 0.0 0.0 0.00 0.00 0.00 1017.1
20260507051546 0 186 0.0 0.0 0.00 0.00 0.00 1017.0
20260507050042 0 186 0.0 0.0 0.00 0.00 0.00 1016.9
20260507044544 0 186 0.0 0.0 0.00 0.00 0.00 1016.8
20260507043033 0 186 0.0 0.0 0.00 0.00 0.00 1016.8
20260507041528 0 186 0.0 0.0 0.00 0.00 0.00 1016.7
20260507040023 0 186 0.0 0.0 0.00 0.00 0.00 1016.7
20260507034519 0 186 0.0 0.0 0.00 0.00 0.00 1016.5
20260507033020 0 186 0.0 0.0 0.00 0.00 0.00 1016.5
20260507031511 0 186 0.0 0.0 0.00 0.00 0.00 1016.5
20260507030006 0 186 0.0 0.0 0.00 0.00 0.00 1016.5
20260507024501 0 186 0.0 0.0 0.00 0.00 0.00 1016.4
20260507023105 0 186 0.0 0.0 0.00 0.00 0.00 1016.3
20260507021552 0 186 0.0 0.0 0.00 0.00 0.00 1016.2
20260507020049 0 186 0.0 0.0 0.00 0.00 0.00 1016.3
20260507014551 0 186 0.0 0.0 0.00 0.00 0.00 1016.2
20260507013039 0 186 0.0 0.0 0.00 0.00 0.00 1016.1
20260507011535 0 186 0.0 0.0 0.00 0.00 0.00 1016.1
20260507010033 0 186 0.0 0.0 0.00 0.00 0.00 1016.1
20260507004525 0 186 0.0 0.0 0.00 0.00 0.00 1016.3
20260507003022 0 186 0.0 0.0 0.00 0.00 0.00 1016.1
20260507001524 0 229 0.0 3.0 0.00 0.00 0.00 1016.0
20260507000016 0 184 0.0 0.0 0.00 0.00 0.00 1016.0